Weather in Vadkovka

Russia / Bryansk Oblast     52°33′34″N   33°19′07″E
temp.,
°C
wind,
m/s
gust,
m/s
humid.,
%
clouds,
%
prec.,
mm/h
press.,
hPa
HPBL,
m
27 september, mon
mon2700:00+7nnw512945 0.0 1019400
03:00+6nnw599399 0.0 1020397
06:00+9nnw5976100 0.0 1021829
09:00+9n6983100 0.0 1022601
12:00+11n577799 0.0 1023828
15:00+12nne5768100 0.4 10231047
18:00+11nne377843 0.4 1023225
21:00+8nne389162 0.4 1024200
28 september, tue
tue2800:00+6n389643 0.0 1025188
03:00+6nne3593100 0.0 1025109
06:00+5n369566 0.0 1025130
09:00+8ne378996 0.0 1026337
12:00+9ne4687100 0.1 1027463
15:00+9ene5782100 0.3 1028657
18:00+8ne488092 0.0 1030551
21:00+7ene498398 0.0 1031507
29 september, wed
wed2900:00+7ene4885100 0.1 1033528
03:00+6ene3681100 0.1 1033385
06:00+7e4665100 0.0 1034317
09:00+6ene47715 0.0 1035335
12:00+10ene34555 0.0 10351073
15:00+11ene334926 0.0 10341262
18:00+9ene336498 0.0 103431
21:00+6e2369100 0.0 103527
30 september, thu
thu3000:00+5e2274100 0.0 103517
03:00+4e2278100 0.0 103612
06:00+3e228177 0.0 103614
09:00+6ese2370100 0.0 1036173
12:00+10se3355100 0.0 1036754
15:00+12se2348100 0.0 10351055
18:00+9ese226395 0.0 103412
21:00+7se2269100 0.0 103520
1 october, fri
fri100:00+5se227450 0.0 103617
03:00+4se22776 0.0 103619
06:00+3se22795 0.0 103622
09:00+7se34675 0.0 1036179
12:00+12sse45515 0.0 1036758
15:00+14s34472 0.0 10341197
18:00+10sse22630 0.0 103418
21:00+7sse33715 0.0 103437